Location: Csohesd
(46.2500°N, 22.6167°E)
Time: 13:34:14
(UTC+00:00)

CZ-4C R/B - Pass Details

Date: 21 October 2021
Orbit: 403 x 482 km, 97.7° (Epoch: 06 December)

Event Time Altitude Azimuth Distance (km) Brightness Sun altitude
Rises 17:17:47 0° 6° (N) 2,485 6.7 -18.9°
Reaches altitude 10° 17:19:55 10° 359° (N) 1,592 5.7 -19.2°
Maximum altitude 17:23:09 41° 289° (WNW) 656 4.2 -19.8°
Drops below altitude 10° 17:26:16 10° 217° (SW) 1,535 6.0 -20.3°
Sets 17:28:17 0° 210° (SSW) 2,383 6.9 -20.7°
